Starlink 32714

operational
NORAD ID: 62499 Int'l Des: 2025-003 Owner: SPXS Country: US Constellation: starlink
LEOCIRCULAR

Über Starlink 32714

Beschreibung wird geladen...

Live-Position

3D-Globus wird geladen...

Nächste Überflüge

Höhenverlauf

Altitude vs Time

uPlot chart will show altitude changes over time

Zweizeiliger Elementsatz

1 62499U 25003N 26034.27142302 .00033627 00000-0 12243-2 0 9991
2 62499 42.9962 123.6969 0001220 266.8254 93.2457 15.27623989 61401
Epoch: 3. Feb. 2026 • Age: 7 hours

Aktueller Status

Höhe 485.3 km
Geschwindigkeit 7.63 km/s
Subsatellitenpunkt 36.50°N, 155.25°W
Startdatum 6. Jan. 2025
Alter 1 years
Typ internet

Technische Details

Klassifizierung Payload
Masse 730.00 kg
Trockenmasse 700.00 kg
Gesamtmasse 730.00 kg
Länge 0.30 m
Durchmesser 4.10 m
Spannweite 29.00 m
Form Box + pan
Hersteller SPXS
Bus-Typ Starlink V2M
Phasenstatus In Orbit
Besitzer/Staat SPXS/US

Große Konstellationen

Loading constellations...